"datetime","temp","dp","rain_mm","uv","solar","mb","wind_mph","gust_mph","windchill","rh"
"2017-11-10 00:00:00",7.8,6.9,0.0,0.0,0,1021.6,0,0,"",94
"2017-11-10 00:01:00",7.8,6.9,0.0,0.0,0,1021.6,0,0,"",94
"2017-11-10 00:02:00",7.7,6.8,0.0,0.0,0,1021.6,0,0,"",94
"2017-11-10 00:03:00",7.7,6.8,0.0,0.0,0,1021.6,0,0,"",94
"2017-11-10 00:04:00",7.7,6.8,0.0,0.0,0,1021.5,0,0,"",94
"2017-11-10 00:05:00",7.7,6.8,0.0,0.0,0,1021.6,0,0,"",94
"2017-11-10 00:06:00",7.7,6.8,0.0,0.0,0,1021.5,0,0,"",94
"2017-11-10 00:07:00",7.7,6.8,0.0,0.0,0,1021.5,0,0,"",94
"2017-11-10 00:08:00",7.6,6.9,0.0,0.0,0,1021.4,0,0,"",95
"2017-11-10 00:09:00",7.6,6.9,0.0,0.0,0,1021.4,0,0,"",95
"2017-11-10 00:10:00",7.6,6.9,0.0,0.0,0,1021.4,0,0,"",95
"2017-11-10 00:11:00",7.6,6.9,0.0,0.0,0,1021.4,0,0,"",95
"2017-11-10 00:12:00",7.6,6.9,0.0,0.0,0,1021.4,0,0,"",95
"2017-11-10 00:13:00",7.6,6.9,0.0,0.0,0,1021.4,0,0,"",95
"2017-11-10 00:14:00",7.6,6.9,0.0,0.0,0,1021.3,0,0,"",95
"2017-11-10 00:15:00",7.5,6.8,0.0,0.0,0,1021.4,0,0,"",95
"2017-11-10 00:16:00",7.5,6.8,0.0,0.0,0,1021.4,0,0,"",95
"2017-11-10 00:17:00",7.5,6.8,0.0,0.0,0,1021.4,0,0,"",95
"2017-11-10 00:18:00",7.4,6.7,0.0,0.0,0,1021.4,0,0,"",95
"2017-11-10 00:19:00",7.4,6.5,0.0,0.0,0,1021.4,0,0,"",94
"2017-11-10 00:20:00",7.4,6.5,0.0,0.0,0,1021.4,0,0,"",94
"2017-11-10 00:21:00",7.4,6.5,0.0,0.0,0,1021.3,0,0,"",94
"2017-11-10 00:22:00",7.4,6.5,0.0,0.0,0,1021.3,0,0,"",94
"2017-11-10 00:23:00",7.3,6.4,0.0,0.0,0,1021.3,0,0,"",94
"2017-11-10 00:24:00",7.3,6.4,0.0,0.0,0,1021.3,0,0,"",94
"2017-11-10 00:25:00",7.3,6.4,0.0,0.0,0,1021.3,0,0,"",94
"2017-11-10 00:26:00",7.3,6.4,0.0,0.0,0,1021.3,0,0,"",94
"2017-11-10 00:27:00",7.3,6.4,0.0,0.0,0,1021.3,0,0,"",94
"2017-11-10 00:28:00",7.3,6.4,0.0,0.0,0,1021.2,0,0,"",94
"2017-11-10 00:29:00",7.3,6.4,0.0,0.0,0,1021.2,0,0,"",94
"2017-11-10 00:30:00",7.2,6.3,0.0,0.0,0,1021.2,0,0,"",94
"2017-11-10 00:31:00",7.2,6.3,0.0,0.0,0,1021.2,0,0,"",94
"2017-11-10 00:32:00",7.2,6.3,0.0,0.0,0,1021.3,0,0,"",94
"2017-11-10 00:33:00",7.2,6.3,0.0,0.0,0,1021.3,0,0,"",94
"2017-11-10 00:34:00",7.2,6.3,0.0,0.0,0,1021.2,0,0,"",94
"2017-11-10 00:35:00",7.2,6.3,0.0,0.0,0,1021.2,0,0,"",94
"2017-11-10 00:36:00",7.1,6.2,0.0,0.0,0,1021.2,0,0,"",94
"2017-11-10 00:37:00",7.1,6.2,0.0,0.0,0,1021.2,0,0,"",94
"2017-11-10 00:38:00",7.1,6.2,0.0,0.0,0,1021.3,0,0,"",94
"2017-11-10 00:39:00",7.1,6.2,0.0,0.0,0,1021.4,0,0,"",94
"2017-11-10 00:40:00",7.1,6.2,0.0,0.0,0,1021.4,0,0,"",94
"2017-11-10 00:41:00",7.1,6.2,0.0,0.0,0,1021.3,0,0,"",94
"2017-11-10 00:42:00",7.0,6.1,0.0,0.0,0,1021.3,0,0,"",94
"2017-11-10 00:43:00",7.0,6.1,0.0,0.0,0,1021.2,0,0,"",94
"2017-11-10 00:44:00",7.0,6.1,0.0,0.0,0,1021.2,0,0,"",94
"2017-11-10 00:45:00",6.9,6.0,0.0,0.0,0,1021.3,0,0,"",94
"2017-11-10 00:46:00",6.9,6.0,0.0,0.0,0,1021.3,0,0,"",94
"2017-11-10 00:47:00",6.9,6.0,0.0,0.0,0,1021.3,0,0,"",94
"2017-11-10 00:48:00",6.9,6.0,0.0,0.0,0,1021.3,0,0,"",94
"2017-11-10 00:49:00",6.9,6.0,0.0,0.0,0,1021.3,0,0,"",94
"2017-11-10 00:50:00",6.9,6.0,0.0,0.0,0,1021.3,0,0,"",94
"2017-11-10 00:51:00",6.9,6.0,0.0,0.0,0,1021.3,0,0,"",94
"2017-11-10 00:52:00",6.8,5.9,0.0,0.0,0,1021.3,0,0,"",94
"2017-11-10 00:53:00",6.8,5.9,0.0,0.0,0,1021.3,0,0,"",94
"2017-11-10 00:54:00",6.8,5.9,0.0,0.0,0,1021.3,0,0,"",94
"2017-11-10 00:55:00",6.8,5.9,0.0,0.0,0,1021.2,0,0,"",94
"2017-11-10 00:56:00",6.8,5.9,0.0,0.0,0,1021.1,0,0,"",94
"2017-11-10 00:57:00",6.8,5.9,0.0,0.0,0,1021.1,0,0,"",94
"2017-11-10 00:58:00",6.8,5.9,0.0,0.0,0,1021.1,0,0,"",94
"2017-11-10 00:59:00",6.8,5.9,0.0,0.0,0,1021.1,0,0,"",94
"2017-11-10 01:00:00",6.7,5.8,0.0,0.0,0,1021.1,0,0,"",94
"2017-11-10 01:01:00",6.7,5.8,0.0,0.0,0,1021.0,0,0,"",94
"2017-11-10 01:02:00",6.7,5.8,0.0,0.0,0,1021.1,0,0,"",94
"2017-11-10 01:03:00",6.7,5.8,0.0,0.0,0,1021.0,0,0,"",94
"2017-11-10 01:04:00",6.7,5.8,0.0,0.0,0,1021.1,0,0,"",94
"2017-11-10 01:05:00",6.7,5.8,0.0,0.0,0,1021.1,0,0,"",94
"2017-11-10 01:06:00",6.7,5.8,0.0,0.0,0,1021.1,0,0,"",94
"2017-11-10 01:07:00",6.7,5.8,0.0,0.0,0,1021.1,0,0,"",94
"2017-11-10 01:08:00",6.6,5.7,0.0,0.0,0,1021.1,0,0,"",94
"2017-11-10 01:09:00",6.6,5.7,0.0,0.0,0,1021.1,0,0,"",94
"2017-11-10 01:10:00",6.6,5.7,0.0,0.0,0,1021.1,0,0,"",94
"2017-11-10 01:11:00",6.6,5.7,0.0,0.0,0,1021.1,0,0,"",94
"2017-11-10 01:12:00",6.6,5.7,0.0,0.0,0,1021.1,0,0,"",94
"2017-11-10 01:13:00",6.6,5.7,0.0,0.0,0,1021.2,0,0,"",94
"2017-11-10 01:14:00",6.6,5.7,0.0,0.0,0,1021.2,0,0,"",94
"2017-11-10 01:15:00",6.6,5.7,0.0,0.0,0,1021.1,0,0,"",94
"2017-11-10 01:16:00",6.6,5.7,0.0,0.0,0,1021.1,0,0,"",94
"2017-11-10 01:17:00",6.5,5.6,0.0,0.0,0,1021.1,0,1,"",94
"2017-11-10 01:18:00",6.5,5.6,0.0,0.0,0,1021.0,0,0,"",94
"2017-11-10 01:19:00",6.5,5.6,0.0,0.0,0,1021.0,0,0,"",94
"2017-11-10 01:20:00",6.5,5.6,0.0,0.0,0,1021.1,0,0,"",94
"2017-11-10 01:21:00",6.5,5.6,0.0,0.0,0,1021.1,0,0,"",94
"2017-11-10 01:22:00",6.5,5.6,0.0,0.0,0,1021.0,0,0,"",94
"2017-11-10 01:23:00",6.4,5.5,0.0,0.0,0,1021.0,0,0,"",94
"2017-11-10 01:24:00",6.4,5.5,0.0,0.0,0,1021.1,0,0,"",94
"2017-11-10 01:25:00",6.4,5.5,0.0,0.0,0,1021.0,0,0,"",94
"2017-11-10 01:26:00",6.4,5.5,0.0,0.0,0,1021.0,0,0,"",94
"2017-11-10 01:27:00",6.4,5.5,0.0,0.0,0,1021.0,0,0,"",94
"2017-11-10 01:28:00",6.4,5.5,0.0,0.0,0,1021.0,0,0,"",94
"2017-11-10 01:29:00",6.4,5.5,0.0,0.0,0,1021.1,0,2,"",94
"2017-11-10 01:30:00",6.4,5.5,0.0,0.0,0,1021.1,1,2,"",94
"2017-11-10 01:31:00",6.4,5.5,0.0,0.0,0,1021.0,0,1,"",94
"2017-11-10 01:32:00",6.3,5.4,0.0,0.0,0,1021.0,0,1,"",94
"2017-11-10 01:33:00",6.3,5.4,0.0,0.0,0,1021.0,0,2,"",94
"2017-11-10 01:34:00",6.3,5.4,0.0,0.0,0,1021.0,0,0,"",94
"2017-11-10 01:35:00",6.3,5.4,0.0,0.0,0,1021.0,0,0,"",94
"2017-11-10 01:36:00",6.3,5.4,0.0,0.0,0,1021.0,0,0,"",94
"2017-11-10 01:37:00",6.3,5.4,0.0,0.0,0,1021.0,0,0,"",94
"2017-11-10 01:38:00",6.3,5.4,0.0,0.0,0,1021.0,0,1,"",94
"2017-11-10 01:39:00",6.3,5.4,0.0,0.0,0,1020.9,0,1,"",94
"2017-11-10 01:40:00",6.3,5.4,0.0,0.0,0,1020.9,0,1,"",94
"2017-11-10 01:41:00",6.3,5.4,0.0,0.0,0,1020.9,0,0,"",94
"2017-11-10 01:42:00",6.3,5.4,0.0,0.0,0,1020.9,0,0,"",94
"2017-11-10 01:43:00",6.3,5.4,0.0,0.0,0,1020.9,0,0,"",94
"2017-11-10 01:44:00",6.3,5.4,0.0,0.0,0,1020.9,0,0,"",94
"2017-11-10 01:45:00",6.3,5.4,0.0,0.0,0,1020.8,0,0,"",94
"2017-11-10 01:46:00",6.3,5.4,0.0,0.0,0,1020.7,0,0,"",94
"2017-11-10 01:47:00",6.3,5.4,0.0,0.0,0,1020.7,0,0,"",94
"2017-11-10 01:48:00",6.2,5.3,0.0,0.0,0,1020.7,0,0,"",94
"2017-11-10 01:49:00",6.2,5.3,0.0,0.0,0,1020.7,0,1,"",94
"2017-11-10 01:50:00",6.2,5.3,0.0,0.0,0,1020.7,0,1,"",94
"2017-11-10 01:51:00",6.2,5.5,0.0,0.0,0,1020.7,0,0,"",95
"2017-11-10 01:52:00",6.2,5.5,0.0,0.0,0,1020.7,0,0,"",95
"2017-11-10 01:53:00",6.2,5.5,0.0,0.0,0,1020.8,0,0,"",95
"2017-11-10 01:54:00",6.2,5.5,0.0,0.0,0,1020.7,0,0,"",95
"2017-11-10 01:55:00",6.2,5.5,0.0,0.0,0,1020.7,0,0,"",95
"2017-11-10 01:56:00",6.2,5.5,0.0,0.0,0,1020.6,0,0,"",95
"2017-11-10 01:57:00",6.2,5.5,0.0,0.0,0,1020.6,0,0,"",95
"2017-11-10 01:58:00",6.2,5.5,0.0,0.0,0,1020.5,0,0,"",95
"2017-11-10 01:59:00",6.2,5.5,0.0,0.0,0,1020.5,0,0,"",95
"2017-11-10 02:00:00",6.2,5.5,0.0,0.0,0,1020.5,0,0,"",95
"2017-11-10 02:01:00",6.2,5.5,0.0,0.0,0,1020.5,0,0,"",95
"2017-11-10 02:02:00",6.2,5.5,0.0,0.0,0,1020.5,0,0,"",95
"2017-11-10 02:03:00",6.2,5.5,0.0,0.0,0,1020.4,0,0,"",95
"2017-11-10 02:04:00",6.2,5.5,0.0,0.0,0,1020.5,0,0,"",95
"2017-11-10 02:05:00",6.2,5.5,0.0,0.0,0,1020.5,0,1,"",95
"2017-11-10 02:06:00",6.2,5.5,0.0,0.0,0,1020.4,0,0,"",95
"2017-11-10 02:07:00",6.2,5.3,0.0,0.0,0,1020.4,0,0,"",94
"2017-11-10 02:08:00",6.2,5.3,0.0,0.0,0,1020.4,0,0,"",94
"2017-11-10 02:09:00",6.2,5.3,0.0,0.0,0,1020.4,0,1,"",94
"2017-11-10 02:10:00",6.2,5.3,0.0,0.0,0,1020.4,0,1,"",94
"2017-11-10 02:11:00",6.2,5.3,0.0,0.0,0,1020.3,0,0,"",94
"2017-11-10 02:12:00",6.2,5.3,0.0,0.0,0,1020.3,0,0,"",94
"2017-11-10 02:13:00",6.2,5.3,0.0,0.0,0,1020.2,0,1,"",94
"2017-11-10 02:14:00",6.1,5.2,0.0,0.0,0,1020.2,0,0,"",94
"2017-11-10 02:15:00",6.1,5.2,0.0,0.0,0,1020.2,0,1,"",94
"2017-11-10 02:16:00",6.1,5.2,0.0,0.0,0,1020.3,0,1,"",94
"2017-11-10 02:17:00",6.2,5.3,0.0,0.0,0,1020.3,1,2,"",94
"2017-11-10 02:18:00",6.1,5.2,0.0,0.0,0,1020.3,0,0,"",94
"2017-11-10 02:19:00",6.1,5.2,0.0,0.0,0,1020.2,0,0,"",94
"2017-11-10 02:20:00",6.1,5.2,0.0,0.0,0,1020.2,0,0,"",94
"2017-11-10 02:21:00",6.1,5.2,0.0,0.0,0,1020.2,0,0,"",94
"2017-11-10 02:22:00",6.1,5.2,0.0,0.0,0,1020.2,0,1,"",94
"2017-11-10 02:23:00",6.1,5.2,0.0,0.0,0,1020.3,0,1,"",94
"2017-11-10 02:24:00",6.1,5.2,0.0,0.0,0,1020.2,0,1,"",94
"2017-11-10 02:25:00",6.1,5.2,0.0,0.0,0,1020.2,0,0,"",94
"2017-11-10 02:26:00",6.1,5.2,0.0,0.0,0,1020.2,0,0,"",94
"2017-11-10 02:27:00",6.1,5.2,0.0,0.0,0,1020.2,0,0,"",94
"2017-11-10 02:28:00",6.1,5.2,0.0,0.0,0,1020.1,0,0,"",94
"2017-11-10 02:29:00",6.1,5.2,0.0,0.0,0,1020.1,0,1,"",94
"2017-11-10 02:30:00",6.1,5.4,0.0,0.0,0,1020.1,0,1,"",95
"2017-11-10 02:31:00",6.1,5.4,0.0,0.0,0,1020.0,0,1,"",95
"2017-11-10 02:32:00",6.1,5.4,0.0,0.0,0,1020.0,0,0,"",95
"2017-11-10 02:33:00",6.1,5.4,0.0,0.0,0,1020.1,1,2,"",95
"2017-11-10 02:34:00",6.1,5.4,0.0,0.0,0,1020.1,0,1,"",95
"2017-11-10 02:35:00",6.1,5.4,0.0,0.0,0,1020.1,0,0,"",95
"2017-11-10 02:36:00",6.1,5.4,0.0,0.0,0,1020.1,0,0,"",95
"2017-11-10 02:37:00",6.1,5.4,0.0,0.0,0,1020.0,0,0,"",95
"2017-11-10 02:38:00",6.1,5.4,0.0,0.0,0,1019.9,0,0,"",95
"2017-11-10 02:39:00",6.1,5.4,0.0,0.0,0,1019.9,0,1,"",95
"2017-11-10 02:40:00",6.1,5.4,0.0,0.0,0,1019.9,0,0,"",95
"2017-11-10 02:41:00",6.1,5.4,0.0,0.0,0,1020.0,0,0,"",95
"2017-11-10 02:42:00",6.1,5.4,0.0,0.0,0,1019.9,0,1,"",95
"2017-11-10 02:43:00",6.1,5.4,0.0,0.0,0,1019.9,0,0,"",95
"2017-11-10 02:44:00",6.1,5.4,0.0,0.0,0,1019.9,0,1,"",95
"2017-11-10 02:45:00",6.1,5.4,0.0,0.0,0,1019.9,0,1,"",95
"2017-11-10 02:46:00",6.1,5.4,0.0,0.0,0,1019.8,1,4,4.9,95
"2017-11-10 02:47:00",6.1,5.4,0.0,0.0,0,1019.9,1,2,"",95
"2017-11-10 02:48:00",6.1,5.4,0.0,0.0,0,1019.9,0,1,"",95
"2017-11-10 02:49:00",6.1,5.4,0.0,0.0,0,1019.8,0,1,"",95
"2017-11-10 02:50:00",6.2,5.5,0.0,0.0,0,1019.8,0,0,"",95
"2017-11-10 02:51:00",6.1,5.4,0.0,0.0,0,1019.8,0,1,"",95
"2017-11-10 02:52:00",6.2,5.5,0.0,0.0,0,1019.8,0,0,"",95
"2017-11-10 02:53:00",6.2,5.5,0.0,0.0,0,1019.7,0,0,"",95
"2017-11-10 02:54:00",6.2,5.5,0.0,0.0,0,1019.7,0,0,"",95
"2017-11-10 02:55:00",6.2,5.5,0.0,0.0,0,1019.6,0,0,"",95
"2017-11-10 02:56:00",6.2,5.5,0.0,0.0,0,1019.6,0,0,"",95
"2017-11-10 02:57:00",6.2,5.5,0.0,0.0,0,1019.6,0,0,"",95
"2017-11-10 02:58:00",6.2,5.5,0.0,0.0,0,1019.6,0,0,"",95
"2017-11-10 02:59:00",6.2,5.5,0.0,0.0,0,1019.6,0,0,"",95
"2017-11-10 03:00:00",6.2,5.5,0.0,0.0,0,1019.5,0,0,"",95
"2017-11-10 03:01:00",6.2,5.5,0.0,0.0,0,1019.5,0,0,"",95
"2017-11-10 03:02:00",6.2,5.5,0.0,0.0,0,1019.5,0,0,"",95
"2017-11-10 03:03:00",6.2,5.5,0.0,0.0,0,1019.6,0,0,"",95
"2017-11-10 03:04:00",6.2,5.5,0.0,0.0,0,1019.5,0,0,"",95
"2017-11-10 03:05:00",6.2,5.5,0.0,0.0,0,1019.5,0,4,5.0,95
"2017-11-10 03:06:00",6.3,5.6,0.0,0.0,0,1019.5,2,5,4.5,95
"2017-11-10 03:07:00",6.3,5.6,0.0,0.0,0,1019.4,0,1,"",95
"2017-11-10 03:08:00",6.3,5.6,0.0,0.0,0,1019.4,1,2,"",95
"2017-11-10 03:09:00",6.3,5.6,0.0,0.0,0,1019.4,1,2,"",95
"2017-11-10 03:10:00",6.3,5.6,0.0,0.0,0,1019.4,1,1,"",95
"2017-11-10 03:11:00",6.3,5.6,0.0,0.0,0,1019.4,0,1,"",95
"2017-11-10 03:12:00",6.3,5.6,0.0,0.0,0,1019.4,1,2,"",95
"2017-11-10 03:13:00",6.3,5.6,0.0,0.0,0,1019.4,0,1,"",95
"2017-11-10 03:14:00",6.3,5.6,0.0,0.0,0,1019.3,0,0,"",95
"2017-11-10 03:15:00",6.3,5.6,0.0,0.0,0,1019.4,1,2,"",95
"2017-11-10 03:16:00",6.3,5.6,0.0,0.0,0,1019.3,1,2,"",95
"2017-11-10 03:17:00",6.3,5.6,0.0,0.0,0,1019.3,1,2,"",95
"2017-11-10 03:18:00",6.3,5.6,0.0,0.0,0,1019.4,1,1,"",95
"2017-11-10 03:19:00",6.3,5.6,0.0,0.0,0,1019.3,0,1,"",95
"2017-11-10 03:20:00",6.4,5.7,0.0,0.0,0,1019.3,0,1,"",95
"2017-11-10 03:21:00",6.4,5.7,0.0,0.0,0,1019.3,0,1,"",95
"2017-11-10 03:22:00",6.4,5.7,0.0,0.0,0,1019.2,0,2,"",95
"2017-11-10 03:23:00",6.4,5.7,0.0,0.0,0,1019.2,1,2,"",95
"2017-11-10 03:24:00",6.4,5.7,0.0,0.0,0,1019.2,1,2,"",95
"2017-11-10 03:25:00",6.4,5.7,0.0,0.0,0,1019.1,0,2,"",95
"2017-11-10 03:26:00",6.4,5.7,0.0,0.0,0,1019.1,1,2,"",95
"2017-11-10 03:27:00",6.4,5.7,0.0,0.0,0,1019.1,0,1,"",95
"2017-11-10 03:28:00",6.4,5.7,0.0,0.0,0,1019.1,0,1,"",95
"2017-11-10 03:29:00",6.4,5.7,0.0,0.0,0,1019.2,0,1,"",95
"2017-11-10 03:30:00",6.5,5.8,0.0,0.0,0,1019.1,1,2,"",95
"2017-11-10 03:31:00",6.5,5.8,0.0,0.0,0,1019.1,0,2,"",95
"2017-11-10 03:32:00",6.5,5.8,0.0,0.0,0,1019.1,1,1,"",95
"2017-11-10 03:33:00",6.5,5.8,0.0,0.0,0,1019.1,1,2,"",95
"2017-11-10 03:34:00",6.5,5.8,0.0,0.0,0,1019.1,0,1,"",95
"2017-11-10 03:35:00",6.6,5.9,0.0,0.0,0,1019.1,0,1,"",95
"2017-11-10 03:36:00",6.6,5.9,0.0,0.0,0,1019.1,1,2,"",95
"2017-11-10 03:37:00",6.6,5.9,0.0,0.0,0,1019.0,1,2,"",95
"2017-11-10 03:38:00",6.6,5.9,0.0,0.0,0,1019.0,1,1,"",95
"2017-11-10 03:39:00",6.6,5.9,0.0,0.0,0,1019.0,0,1,"",95
"2017-11-10 03:40:00",6.6,5.9,0.0,0.0,0,1019.0,0,1,"",95
"2017-11-10 03:41:00",6.6,5.9,0.0,0.0,0,1019.0,0,1,"",95
"2017-11-10 03:42:00",6.7,6.0,0.0,0.0,0,1019.0,2,4,5.4,95
"2017-11-10 03:43:00",6.7,6.0,0.0,0.0,0,1018.9,1,2,"",95
"2017-11-10 03:44:00",6.7,6.0,0.0,0.0,0,1018.8,1,2,"",95
"2017-11-10 03:45:00",6.7,6.0,0.0,0.0,0,1018.9,1,1,"",95
"2017-11-10 03:46:00",6.7,6.0,0.0,0.0,0,1018.8,0,1,"",95
"2017-11-10 03:47:00",6.7,6.0,0.0,0.0,0,1018.7,1,2,"",95
"2017-11-10 03:48:00",6.7,6.0,0.0,0.0,0,1018.7,1,2,"",95
"2017-11-10 03:49:00",6.7,6.0,0.0,0.0,0,1018.7,2,4,5.5,95
"2017-11-10 03:50:00",6.8,6.1,0.0,0.0,0,1018.5,1,2,"",95
"2017-11-10 03:51:00",6.8,6.1,0.0,0.0,0,1018.5,1,4,5.7,95
"2017-11-10 03:52:00",6.8,6.1,0.0,0.0,0,1018.5,2,3,"",95
"2017-11-10 03:53:00",6.8,6.1,0.0,0.0,0,1018.5,1,2,"",95
"2017-11-10 03:54:00",6.8,6.1,0.0,0.0,0,1018.5,1,3,"",95
"2017-11-10 03:55:00",6.8,6.1,0.0,0.0,0,1018.5,1,3,"",95
"2017-11-10 03:56:00",6.9,6.2,0.0,0.0,0,1018.4,1,2,"",95
"2017-11-10 03:57:00",6.9,6.2,0.0,0.0,0,1018.5,1,2,"",95
"2017-11-10 03:58:00",6.9,6.2,0.0,0.0,0,1018.5,1,2,"",95
"2017-11-10 03:59:00",6.9,6.2,0.0,0.0,0,1018.7,2,3,"",95
"2017-11-10 04:00:00",6.9,6.2,0.0,0.0,0,1018.7,0,1,"",95
"2017-11-10 04:01:00",6.9,6.2,0.0,0.0,0,1018.7,0,1,"",95
"2017-11-10 04:02:00",6.9,6.2,0.0,0.0,0,1018.7,0,1,"",95
"2017-11-10 04:03:00",7.0,6.3,0.0,0.0,0,1018.7,0,2,"",95
"2017-11-10 04:04:00",7.0,6.3,0.0,0.0,0,1018.7,0,1,"",95
"2017-11-10 04:05:00",7.0,6.3,0.0,0.0,0,1018.6,1,2,"",95
"2017-11-10 04:06:00",7.0,6.3,0.0,0.0,0,1018.5,1,2,"",95
"2017-11-10 04:07:00",7.0,6.3,0.0,0.0,0,1018.5,1,2,"",95
"2017-11-10 04:08:00",7.0,6.3,0.0,0.0,0,1018.4,1,3,"",95
"2017-11-10 04:09:00",7.0,6.3,0.0,0.0,0,1018.4,1,2,"",95
"2017-11-10 04:10:00",7.1,6.4,0.0,0.0,0,1018.3,1,2,"",95
"2017-11-10 04:11:00",7.1,6.4,0.0,0.0,0,1018.3,1,2,"",95
"2017-11-10 04:12:00",7.1,6.4,0.0,0.0,0,1018.3,0,0,"",95
"2017-11-10 04:13:00",7.1,6.4,0.0,0.0,0,1018.3,0,1,"",95
"2017-11-10 04:14:00",7.1,6.4,0.0,0.0,0,1018.3,2,3,"",95
"2017-11-10 04:15:00",7.1,6.4,0.0,0.0,0,1018.2,1,2,"",95
"2017-11-10 04:16:00",7.1,6.4,0.0,0.0,0,1018.2,0,1,"",95
"2017-11-10 04:17:00",7.1,6.4,0.0,0.0,0,1018.3,1,2,"",95
"2017-11-10 04:18:00",7.2,6.5,0.0,0.0,0,1018.2,1,1,"",95
"2017-11-10 04:19:00",7.2,6.5,0.0,0.0,0,1018.2,0,2,"",95
"2017-11-10 04:20:00",7.2,6.5,0.0,0.0,0,1018.3,1,2,"",95
"2017-11-10 04:21:00",7.2,6.5,0.0,0.0,0,1018.2,1,2,"",95
"2017-11-10 04:22:00",7.2,6.5,0.0,0.0,0,1018.3,0,2,"",95
"2017-11-10 04:23:00",7.2,6.5,0.0,0.0,0,1018.1,1,2,"",95
"2017-11-10 04:24:00",7.2,6.5,0.0,0.0,0,1018.1,0,1,"",95
"2017-11-10 04:25:00",7.2,6.5,0.0,0.0,0,1018.1,1,1,"",95
"2017-11-10 04:26:00",7.2,6.5,0.0,0.0,0,1018.0,1,3,"",95
"2017-11-10 04:27:00",7.2,6.5,0.0,0.0,0,1017.9,1,2,"",95
"2017-11-10 04:28:00",7.2,6.6,0.0,0.0,0,1018.0,1,2,"",96
"2017-11-10 04:29:00",7.2,6.5,0.0,0.0,0,1018.1,0,1,"",95
"2017-11-10 04:30:00",7.3,6.6,0.0,0.0,0,1018.1,0,1,"",95
"2017-11-10 04:31:00",7.3,6.6,0.0,0.0,0,1018.0,1,2,"",95
"2017-11-10 04:32:00",7.3,6.6,0.0,0.0,0,1017.9,1,3,"",95
"2017-11-10 04:33:00",7.3,6.6,0.0,0.0,0,1017.9,1,3,"",95
"2017-11-10 04:34:00",7.3,6.6,0.0,0.0,0,1017.9,2,5,5.8,95
"2017-11-10 04:35:00",7.3,6.6,0.0,0.0,0,1017.9,0,1,"",95
"2017-11-10 04:36:00",7.3,6.6,0.0,0.0,0,1017.9,0,1,"",95
"2017-11-10 04:37:00",7.4,6.7,0.0,0.0,0,1018.0,1,2,"",95
"2017-11-10 04:38:00",7.4,6.7,0.0,0.0,0,1018.0,0,1,"",95
"2017-11-10 04:39:00",7.4,6.7,0.0,0.0,0,1017.9,2,3,"",95
"2017-11-10 04:40:00",7.4,6.7,0.0,0.0,0,1017.9,2,3,"",95
"2017-11-10 04:41:00",7.4,6.8,0.0,0.0,0,1017.7,2,4,6.4,96
"2017-11-10 04:42:00",7.5,6.9,0.0,0.0,0,1017.8,1,3,"",96
"2017-11-10 04:43:00",7.5,6.9,0.0,0.0,0,1017.8,1,2,"",96
"2017-11-10 04:44:00",7.5,6.9,0.0,0.0,0,1017.9,1,2,"",96
"2017-11-10 04:45:00",7.6,7.0,0.0,0.0,0,1017.9,1,3,"",96
"2017-11-10 04:46:00",7.6,7.0,0.0,0.0,0,1017.8,2,4,6.6,96
"2017-11-10 04:47:00",7.6,7.0,0.0,0.0,0,1017.8,0,1,"",96
"2017-11-10 04:48:00",7.6,7.0,0.0,0.0,0,1017.7,1,3,"",96
"2017-11-10 04:49:00",7.6,7.0,0.0,0.0,0,1017.9,2,5,6.2,96
"2017-11-10 04:50:00",7.6,7.0,0.0,0.0,0,1017.9,0,2,"",96
"2017-11-10 04:51:00",7.6,7.0,0.0,0.0,0,1017.9,1,4,6.6,96
"2017-11-10 04:52:00",7.7,7.1,0.0,0.0,0,1017.8,2,3,"",96
"2017-11-10 04:53:00",7.7,7.1,0.0,0.0,0,1017.8,1,3,"",96
"2017-11-10 04:54:00",7.7,7.1,0.0,0.0,0,1017.9,0,3,"",96
"2017-11-10 04:55:00",7.7,7.1,0.0,0.0,0,1018.0,0,3,"",96
"2017-11-10 04:56:00",7.7,7.1,0.0,0.0,0,1018.1,1,3,"",96
"2017-11-10 04:57:00",7.7,7.1,0.0,0.0,0,1018.2,0,1,"",96
"2017-11-10 04:58:00",7.7,7.1,0.0,0.0,0,1018.1,1,1,"",96
"2017-11-10 04:59:00",7.7,7.1,0.0,0.0,0,1018.1,1,4,6.7,96
"2017-11-10 05:00:00",7.7,7.1,0.0,0.0,0,1018.1,1,2,"",96
"2017-11-10 05:01:00",7.8,7.2,0.0,0.0,0,1018.1,1,3,"",96
"2017-11-10 05:02:00",7.8,7.2,0.0,0.0,0,1018.2,2,4,6.8,96
"2017-11-10 05:03:00",7.8,7.2,0.0,0.0,0,1018.1,2,3,"",96
"2017-11-10 05:04:00",7.8,7.2,0.0,0.0,0,1018.0,1,2,"",96
"2017-11-10 05:05:00",7.8,7.2,0.0,0.0,0,1018.0,0,1,"",96
"2017-11-10 05:06:00",7.8,7.2,0.0,0.0,0,1018.1,1,2,"",96
"2017-11-10 05:07:00",7.8,7.2,0.0,0.0,0,1018.1,0,1,"",96
"2017-11-10 05:08:00",7.8,7.2,0.0,0.0,0,1018.1,1,4,6.8,96
"2017-11-10 05:09:00",7.8,7.2,0.0,0.0,0,1018.0,1,2,"",96
"2017-11-10 05:10:00",7.9,7.3,0.0,0.0,0,1017.9,0,1,"",96
"2017-11-10 05:11:00",7.9,7.3,0.0,0.0,0,1017.9,0,1,"",96
"2017-11-10 05:12:00",7.9,7.3,0.0,0.0,0,1017.9,0,1,"",96
"2017-11-10 05:13:00",7.9,7.3,0.0,0.0,0,1017.9,1,3,"",96
"2017-11-10 05:14:00",7.9,7.3,0.0,0.0,0,1017.9,1,3,"",96
"2017-11-10 05:15:00",7.9,7.3,0.0,0.0,0,1017.9,0,1,"",96
"2017-11-10 05:16:00",7.9,7.3,0.0,0.0,0,1017.9,0,1,"",96
"2017-11-10 05:17:00",8.0,7.4,0.0,0.0,0,1017.9,0,1,"",96
"2017-11-10 05:18:00",8.0,7.4,0.0,0.0,0,1017.9,1,1,"",96
"2017-11-10 05:19:00",8.0,7.4,0.0,0.0,0,1017.9,0,1,"",96
"2017-11-10 05:20:00",8.1,7.5,0.0,0.0,0,1017.8,0,2,"",96
"2017-11-10 05:21:00",8.1,7.5,0.0,0.0,0,1017.9,1,1,"",96
"2017-11-10 05:22:00",8.1,7.5,0.0,0.0,0,1017.8,1,3,"",96
"2017-11-10 05:23:00",8.1,7.5,0.0,0.0,0,1017.8,1,3,"",96
"2017-11-10 05:24:00",8.1,7.5,0.0,0.0,0,1017.9,0,1,"",96
"2017-11-10 05:25:00",8.1,7.5,0.0,0.0,0,1017.8,0,1,"",96
"2017-11-10 05:26:00",8.1,7.5,0.0,0.0,0,1017.8,0,1,"",96
"2017-11-10 05:27:00",8.1,7.5,0.0,0.0,0,1017.9,1,1,"",96
"2017-11-10 05:28:00",8.2,7.6,0.0,0.0,0,1017.9,0,1,"",96
"2017-11-10 05:29:00",8.2,7.6,0.0,0.0,0,1017.9,1,2,"",96
"2017-11-10 05:30:00",8.2,7.6,0.0,0.0,0,1017.8,2,4,7.3,96
"2017-11-10 05:31:00",8.2,7.6,0.0,0.0,0,1017.9,1,1,"",96
"2017-11-10 05:32:00",8.2,7.6,0.0,0.0,0,1017.9,1,1,"",96
"2017-11-10 05:33:00",8.2,7.6,0.0,0.0,0,1017.8,0,2,"",96
"2017-11-10 05:34:00",8.2,7.6,0.0,0.0,0,1017.8,0,0,"",96
"2017-11-10 05:35:00",8.2,7.6,0.0,0.0,0,1017.9,0,1,"",96
"2017-11-10 05:36:00",8.2,7.6,0.0,0.0,0,1017.9,0,2,"",96
"2017-11-10 05:37:00",8.2,7.6,0.0,0.0,0,1017.9,0,0,"",96
"2017-11-10 05:38:00",8.2,7.6,0.0,0.0,0,1017.9,1,2,"",96
"2017-11-10 05:39:00",8.3,7.7,0.0,0.0,0,1017.9,0,2,"",96
"2017-11-10 05:40:00",8.3,7.7,0.0,0.0,0,1017.9,0,2,"",96
"2017-11-10 05:41:00",8.3,7.7,0.0,0.0,0,1017.9,0,2,"",96
"2017-11-10 05:42:00",8.3,7.7,0.0,0.0,0,1018.0,1,2,"",96
"2017-11-10 05:43:00",8.3,7.7,0.0,0.0,0,1017.9,0,1,"",96
"2017-11-10 05:44:00",8.3,7.7,0.0,0.0,0,1017.9,0,1,"",96
"2017-11-10 05:45:00",8.3,7.7,0.0,0.0,0,1017.9,1,3,"",96
"2017-11-10 05:46:00",8.3,7.7,0.0,0.0,0,1017.8,2,6,6.7,96
"2017-11-10 05:47:00",8.3,7.7,0.0,0.0,0,1017.8,0,0,"",96
"2017-11-10 05:48:00",8.3,7.7,0.0,0.0,0,1017.8,0,1,"",96
"2017-11-10 05:49:00",8.3,7.7,0.0,0.0,0,1017.8,0,1,"",96
"2017-11-10 05:50:00",8.4,7.8,0.0,0.0,0,1017.8,0,1,"",96
"2017-11-10 05:51:00",8.4,7.8,0.0,0.0,0,1017.8,0,1,"",96
"2017-11-10 05:52:00",8.4,7.8,0.0,0.0,0,1017.8,1,2,"",96
"2017-11-10 05:53:00",8.4,7.8,0.0,0.0,0,1017.8,1,3,"",96
"2017-11-10 05:54:00",8.4,7.8,0.0,0.0,0,1017.7,1,2,"",96
"2017-11-10 05:55:00",8.4,7.8,0.0,0.0,0,1017.7,2,3,"",96
"2017-11-10 05:56:00",8.4,7.8,0.0,0.0,0,1017.8,0,1,"",96
"2017-11-10 05:57:00",8.4,7.8,0.0,0.0,0,1017.8,0,1,"",96
"2017-11-10 05:58:00",8.4,7.8,0.0,0.0,0,1017.8,0,0,"",96
"2017-11-10 05:59:00",8.4,7.8,0.0,0.0,0,1017.8,1,3,"",96
"2017-11-10 06:00:00",8.4,7.8,0.0,0.0,0,1017.7,1,2,"",96
"2017-11-10 06:01:00",8.5,7.9,0.0,0.0,0,1017.8,1,3,"",96
"2017-11-10 06:02:00",8.5,7.9,0.0,0.0,0,1017.8,1,2,"",96
"2017-11-10 06:03:00",8.5,7.9,0.0,0.0,0,1017.8,0,1,"",96
"2017-11-10 06:04:00",8.5,7.9,0.0,0.0,0,1017.8,0,0,"",96
"2017-11-10 06:05:00",8.5,7.9,0.0,0.0,0,1017.7,0,0,"",96
"2017-11-10 06:06:00",8.6,8.0,0.0,0.0,0,1017.8,0,0,"",96
"2017-11-10 06:07:00",8.6,8.0,0.0,0.0,0,1017.7,0,0,"",96
"2017-11-10 06:08:00",8.6,8.0,0.0,0.0,0,1017.8,0,0,"",96
"2017-11-10 06:09:00",8.6,8.0,0.0,0.0,0,1017.8,1,2,"",96
"2017-11-10 06:10:00",8.6,8.0,0.0,0.0,0,1017.8,0,1,"",96
"2017-11-10 06:11:00",8.6,8.0,0.0,0.0,0,1017.8,0,1,"",96
"2017-11-10 06:12:00",8.6,8.0,0.0,0.0,0,1017.9,0,1,"",96
"2017-11-10 06:13:00",8.6,8.0,0.0,0.0,0,1017.8,1,2,"",96
"2017-11-10 06:14:00",8.6,8.0,0.0,0.0,0,1017.9,1,2,"",96
"2017-11-10 06:15:00",8.6,8.0,0.0,0.0,0,1017.9,1,2,"",96
"2017-11-10 06:16:00",8.7,8.1,0.0,0.0,0,1017.8,1,2,"",96
"2017-11-10 06:17:00",8.7,8.1,0.0,0.0,0,1017.9,1,2,"",96
"2017-11-10 06:18:00",8.7,8.1,0.0,0.0,0,1017.8,1,2,"",96
"2017-11-10 06:19:00",8.7,8.1,0.0,0.0,0,1017.8,1,2,"",96
"2017-11-10 06:20:00",8.7,8.1,0.0,0.0,0,1017.8,0,1,"",96
"2017-11-10 06:21:00",8.7,8.1,0.0,0.0,0,1017.8,0,1,"",96
"2017-11-10 06:22:00",8.7,8.1,0.0,0.0,0,1017.7,1,3,"",96
"2017-11-10 06:23:00",8.7,8.1,0.0,0.0,0,1017.7,1,2,"",96
"2017-11-10 06:24:00",8.7,8.1,0.0,0.0,0,1017.7,0,1,"",96
"2017-11-10 06:25:00",8.7,8.1,0.0,0.0,0,1017.6,1,2,"",96
"2017-11-10 06:26:00",8.7,8.1,0.0,0.0,0,1017.6,0,1,"",96
"2017-11-10 06:27:00",8.7,8.1,0.0,0.0,0,1017.5,1,6,7.1,96
"2017-11-10 06:28:00",8.7,8.1,0.0,0.0,0,1017.5,0,1,"",96
"2017-11-10 06:29:00",8.7,8.1,0.0,0.0,0,1017.5,0,1,"",96
"2017-11-10 06:30:00",8.7,8.1,0.0,0.0,0,1017.5,1,1,"",96
"2017-11-10 06:31:00",8.7,8.1,0.0,0.0,0,1017.5,1,3,"",96
"2017-11-10 06:32:00",8.7,8.1,0.0,0.0,0,1017.5,0,1,"",96
"2017-11-10 06:33:00",8.8,8.2,0.0,0.0,0,1017.5,0,1,"",96
"2017-11-10 06:34:00",8.8,8.2,0.0,0.0,0,1017.6,1,3,"",96
"2017-11-10 06:35:00",8.8,8.2,0.0,0.0,0,1017.6,0,1,"",96
"2017-11-10 06:36:00",8.8,8.2,0.0,0.0,0,1017.6,1,2,"",96
"2017-11-10 06:37:00",8.8,8.2,0.0,0.0,0,1017.6,1,1,"",96
"2017-11-10 06:38:00",8.8,8.2,0.0,0.0,0,1017.5,1,3,"",96
"2017-11-10 06:39:00",8.8,8.2,0.0,0.0,0,1017.5,1,3,"",96
"2017-11-10 06:40:00",8.8,8.2,0.0,0.0,0,1017.6,0,1,"",96
"2017-11-10 06:41:00",8.8,8.2,0.0,0.0,0,1017.5,0,1,"",96
"2017-11-10 06:42:00",8.8,8.2,0.0,0.0,0,1017.5,0,0,"",96
"2017-11-10 06:43:00",8.8,8.2,0.0,0.0,0,1017.5,0,0,"",96
"2017-11-10 06:44:00",8.8,8.2,0.0,0.0,0,1017.4,1,4,8.0,96
"2017-11-10 06:45:00",8.8,8.2,0.0,0.0,0,1017.5,1,1,"",96
"2017-11-10 06:46:00",8.8,8.2,0.0,0.0,0,1017.4,2,4,8.0,96
"2017-11-10 06:47:00",8.8,8.2,0.0,0.0,0,1017.4,1,3,"",96
"2017-11-10 06:48:00",8.8,8.2,0.0,0.0,0,1017.3,2,3,"",96
"2017-11-10 06:49:00",8.8,8.2,0.0,0.0,0,1017.4,0,1,"",96
"2017-11-10 06:50:00",8.8,8.2,0.0,0.0,0,1017.4,1,2,"",96
"2017-11-10 06:51:00",8.8,8.2,0.0,0.0,0,1017.4,1,2,"",96
"2017-11-10 06:52:00",8.9,8.3,0.0,0.0,0,1017.4,0,2,"",96
"2017-11-10 06:53:00",8.9,8.3,0.0,0.0,0,1017.5,1,2,"",96
"2017-11-10 06:54:00",8.9,8.3,0.0,0.0,0,1017.4,0,1,"",96
"2017-11-10 06:55:00",8.9,8.3,0.0,0.0,0,1017.4,0,0,"",96
"2017-11-10 06:56:00",8.9,8.3,0.0,0.0,0,1017.4,0,0,"",96
"2017-11-10 06:57:00",8.9,8.3,0.0,0.0,0,1017.5,0,1,"",96
"2017-11-10 06:58:00",8.9,8.3,0.0,0.0,0,1017.5,0,2,"",96